User: anonymous   Login
Location: Asheville, NC
(35.6000°N, 82.5500°W)
Time: 14:16:57
(UTC-05:00)
Language:

ESTCUBE 1 - Orbit

View from above orbital plane
View from above orbital plane
View from above satellite
View from above satellite

Ground track
Ground track

The orbit data is extracted from the following two-line orbital elements,

1 39161U 13021C   18018.68894916  .00000132  00000-0  28992-4 0  9996
2 39161  98.0174 106.7829 0009730 167.3703 192.7750 14.72010241252451
Epoch (UTC): 18 January 2018 16:32:05
Eccentricity: 0.0009730
inclination: 98.0174°
perigee height: 648 km
apogee height: 661 km
right ascension of ascending node: 106.7829°
argument of perigee: 167.3703°
revolutions per day: 14.72010241
mean anomaly at epoch: 192.7750°
orbit number at epoch: 25245

The dashed part of the orbit path shows where the satellite is in the earth's shadow,  

DLR